20090827,3989
20090828,4006
20090831,4603
20090901,4789
20090902,4754
20090903,4719
20090904,4795
20090907,4908
20090908,4961
20090909,5010
20090910,5055
20090911,5113
20090914,5171
20090915,5218
20090916,5319
20090917,5443
20090918,5448
20090924,5621
20090925,5613
20090928,5544
20090929,5816
20090930,5996
20091001,6162
20091002,5944
20091005,5900
20091006,5889
20091007,5957
20091008,5891
20091009,5937
20091013,6065
20091014,6052
20091015,6147
20091016,6151
20091019,6056
20091020,6009
20091021,6075
20091022,6060
20091023,6131
20091026,6140
20091027,6135
20091028,6063
20091029,5802
20091030,6116
20091102,5919
20091104,5985
20091105,6081
20091106,6137
20091109,6156
20091110,6278
20091111,6226
20091112,6371
20091113,6296
20091116,6233
20091117,6320
20091118,6297
20091119,6268
20091120,6068
20091124,6109
20091125,6068
20091126,5954
20091127,5841
20091130,5771
20091201,5555
20091202,5694
20091203,5839
20091204,5912
20091207,6111
20091208,6060
20091209,5976
20091210,5824
20091211,5769
20091214,5672
20091215,5600
20091216,5612
20091217,5638
20091218,5503
20091221,5590
20091222,5587
20091224,5685
20091225,5504
20091228,5108
20091229,5077
20091230,5087
20100104,4506
20100105,4497
20100106,4353
20100107,4034
20100108,3574
20100112,3220
20100113,2928
20100114,2783
20100115,2816
20100118,2692
20100119,2666
20100120,2674
20100121,2623
20100122,2559
20100125,2428
20100126,2427
20100127,2322
20100128,2301
20100129,2292
20100201,2277
20100202,2315
20100203,2317
20100204,2329
20100205,2233
20100208,2226
20100209,2219
20100210,2274
20100212,2298
20100215,2307
20100216,2304
20100217,2351
20100218,2461
20100219,2472
20100222,2559
20100223,2502
20100224,2410
20100225,2379
20100226,2355
20100301,2360
20100302,2410
20100303,2404
20100304,2414
20100305,2420
20100308,2481
20100309,2505
20100310,2497
20100311,2561
20100312,2556
20100315,2649
20100316,2592
20100317,2649
20100318,2676
20100319,2677
20100323,2704
20100324,2690
20100325,2688
20100326,2715
20100329,2714
20100330,2709
20100331,2720
20100401,2695
20100402,2712
20100405,2474
20100406,2506
20100407,2489
20100408,2310
20100409,2094
20100412,1979
20100413,1907
20100414,1891
20100415,1890
20100416,1878
20100419,1866
20100420,1852
20100421,1884
20100422,1921
20100423,1953
20100426,1967
20100427,1898
20100428,1842
20100430,1973
20100506,1882
20100507,1788
20100510,1776
20100511,1881
20100512,1866
20100513,1810
20100514,1787
20100517,1735
20100518,1733
20100519,1683
20100520,1694
20100521,1617
20100524,1732
20100525,1707
20100526,1694
20100527,1696
20100528,1790
20100531,1776
20100601,1786
20100602,1760
20100603,1812
20100604,1848
20100607,1769
20100608,1740
20100609,1722
20100610,1698
20100611,1753
20100614,1784
20100615,1794
20100616,1851
20100617,2023
20100618,2024
20100621,2073
20100622,2081
20100623,2036
20100624,1997
20100625,1930
20100628,1896
20100629,1908
20100630,1826
20100701,1799
20100702,1627
20100705,1625
20100706,1619
20100707,1640
20100708,1690
20100709,1706
20100712,1736
20100713,1741
20100714,1763
20100715,1767
20100716,1744
20100720,1722
20100721,1729
20100722,1702
20100723,1740
20100726,1758
20100727,1761
20100728,1773
20100729,1774
20100730,1751
20100802,1738
20100803,1755
20100804,1723
20100805,1740
20100806,1732
20100809,1724
20100810,1738
20100811,1689
20100812,1648
20100813,1652
20100816,1623
20100817,1621
20100818,1641
20100819,1654
20100820,1637
20100823,1630
20100824,1567
20100825,1533
20100826,1533
20100827,1498
20100830,1531
20100831,1485
20100901,1454
20100902,1482
20100903,1501
20100906,1527
20100907,1527
20100908,1497
20100909,1488
20100910,1492
20100913,1484
20100914,1503
20100915,1533
20100916,1546
20100917,1558
20100921,1576
20100922,1565
20100924,1535
20100927,1560
20100928,1555
20100929,1563
20100930,1570
20101001,1579
20101004,1584
20101005,1572
20101006,1585
20101007,1578
20101008,1564
20101012,1562
20101013,1555
20101014,1552
20101015,1553
20101018,1555
20101019,1541
20101020,1523
20101021,1520
20101022,1516
20101025,1530
20101026,1530
20101027,1533
20101028,1549
20101029,1547
20101101,1541
20101102,1546
20101104,1561
20101105,1602
20101108,1615
20101109,1603
20101110,1610
20101111,1620
20101112,1600
20101115,1598
20101116,1621
20101117,1619
20101118,1611
20101119,1654
20101122,1683
20101124,1675
20101125,1712
20101126,1770
20101129,1760
20101130,1791
20101201,1804
20101202,1855
20101203,1885
20101206,1903
20101207,1895
20101208,1902
20101209,1899
20101210,1902
20101213,1869
20101214,1839
20101215,1836
20101216,1819
20101217,1818
20101220,1820
20101221,1807
20101222,1803
20101224,1776
20101227,1771
20101228,1769
20101229,1764
20101230,1753
20110104,1769
20110105,1660
20110106,1678
20110107,1683
20110111,1663
20110112,1692
20110113,1718
20110114,1714
20110117,1729
20110118,1685
20110119,1707
20110120,1595
20110121,1581
20110124,1549
20110125,1566
20110126,1556
20110127,1525
20110128,1550
20110131,1513
20110201,1488
20110202,1503
20110203,1495
20110204,1459
20110207,1447
20110208,1427
20110209,1411
20110210,1367
20110214,1347
20110215,1333
20110216,1303
20110217,1304
20110218,1305
20110221,1282
20110222,1271
20110223,1243
20110224,1195
20110225,1193
20110228,1205
20110301,1178
20110302,1168
20110303,1173
20110304,1198
20110307,1196
20110308,1163
20110309,1174
20110310,1137
20110311,1106
20110314,1094
20110315,1098
20110316,1059
20110317,1024
20110318,1060
20110322,1077
20110323,1069
20110324,1081
20110325,1088
20110328,1101
20110329,1102
20110330,1119
20110331,1135
20110401,1132
20110404,1140
20110405,1133
20110406,1153
20110407,1135
20110408,1101
20110411,1043
20110412,1027
20110413,992
20110414,988
20110415,983
20110418,975
20110419,953
20110420,960
20110421,998
20110422,999
20110425,999
20110426,992
20110427,1004
20110428,1006
20110502,1020
20110506,1008
20110509,1011
20110510,1004
20110511,1017
20110512,1016
20110513,1016
20110516,1003
20110517,998
20110518,980
20110519,982
20110520,976
20110523,967
20110524,946
20110525,934
20110526,934
20110527,939
20110530,932
20110531,935
20110601,955
20110602,922
20110603,913
20110606,897
20110607,884
20110608,887
20110609,874
20110610,875
20110613,857
20110614,849
20110615,866
20110616,854
20110617,834
20110620,818
20110621,816
20110622,833
20110623,830
20110624,836
20110627,828
20110628,825
20110629,835
20110630,827
20110701,847
20110704,863
20110705,870
20110706,868
20110707,866
20110708,895
20110711,872
20110712,850
20110713,816
20110714,808
20110715,799
20110719,786
20110720,805
20110721,807
20110722,799
20110725,804
20110726,847
20110727,845
20110728,827
20110729,818
20110801,812
20110802,809
20110803,787
20110804,799
20110805,767
20110808,742
20110809,701
20110810,708
20110811,695
20110812,719
20110815,717
20110816,726
20110817,721
20110818,715
20110819,679
20110822,662
20110823,663
20110824,689
20110825,683
20110826,680
20110829,687
20110830,708
20110831,707
20110901,715
20110902,712
20110905,691
20110906,680
20110907,680
20110908,710
20110909,713
20110912,687
20110913,695
20110914,701
20110915,703
20110916,717
20110920,713
20110921,702
20110922,695
20110926,669
20110927,669
20110928,689
20110929,636
20110930,637
20111003,625
20111004,580
20111005,589
20111006,605
20111007,612
20111011,635
20111012,633
20111013,643
20111014,647
20111017,654
20111018,644
20111019,648
20111020,645
20111021,636
20111024,646
20111025,663
20111026,658
20111027,657
20111028,670
20111031,686
20111101,680
20111102,663
20111104,677
20111107,688
20111108,669
20111109,668
20111110,645
20111111,637
20111114,654
20111115,651
20111116,654
20111117,647
20111118,629
20111121,621
20111122,609
20111124,586
20111125,581
20111128,580
20111129,603
20111130,605
20111201,625
20111202,638
20111205,636
20111206,638
20111207,636
20111208,637
20111209,620
20111212,616
20111213,606
20111214,589
20111215,582
20111216,578
20111219,581
20111220,570
20111221,587
20111222,592
20111226,590
20111227,587
20111228,587
20111229,581
20111230,578
20120104,578
20120105,577
20120106,582
20120110,582
20120111,586
20120112,578
20120113,581
20120116,575
20120117,575
20120118,578
20120119,594
20120120,606
20120123,610
20120124,610
20120125,617
20120126,619
20120127,609
20120130,601
20120131,595
20120201,592
20120202,598
20120203,599
20120206,606
20120207,603
20120208,608
20120209,613
20120210,619
20120213,609
20120214,608
20120215,617
20120216,624
20120217,633
20120220,644
20120221,645
20120222,640
20120223,639
20120224,633
20120227,581
20120228,567
20120229,579
20120301,624
20120302,619
20120305,608
20120306,597
20120307,589
20120308,598
20120309,607
20120312,657
20120313,653
20120314,652
20120315,660
20120316,663
20120319,663
20120321,676
20120322,674
20120323,682
20120326,695
20120327,733
20120328,757
20120329,758
20120330,756
20120402,827
20120403,819
20120404,819
20120405,801
20120406,790
20120409,692
20120410,687
20120411,667
20120412,675
20120413,676
20120416,671
20120417,670
20120418,678
20120419,681
20120420,687
20120423,671
20120424,657
20120425,656
20120426,667
20120427,674
20120501,670
20120502,675
20120507,646
20120508,644
20120509,636
20120510,631
20120511,633
20120514,635
20120515,627
20120516,626
20120517,611
20120518,597
20120521,582
20120522,594
20120523,596
20120524,585
20120525,586
20120528,585
20120529,588
20120530,597
20120531,585
20120601,578
20120604,557
20120605,550
20120606,561
20120607,579
20120608,585
20120611,587
20120612,581
20120613,589
20120614,588
20120615,586
20120618,586
20120619,593
20120620,564
20120621,545
20120622,535
20120625,535
20120626,514
20120627,510
20120628,516
20120629,505
20120702,515
20120703,513
20120704,520
20120705,522
20120706,518
20120709,503
20120710,496
20120711,491
20120712,489
20120713,476
20120717,478
20120718,480
20120719,487
20120720,496
20120723,486
20120724,476
20120725,473
20120726,462
20120727,473
20120730,488
20120731,487
20120801,505
20120802,506
20120803,498
20120806,509
20120807,511
20120808,520
20120809,521
20120810,527
20120813,526
20120814,524
20120815,525
20120816,523
20120817,528
20120820,523
20120821,519
20120822,520
20120823,509
20120824,506
20120827,506
20120828,499
20120829,498
20120830,486
20120831,451
20120903,452
20120904,453
20120905,450
20120906,445
20120907,457
20120910,456
20120911,450
20120912,450
20120913,452
20120914,455
20120918,464
20120919,462
20120920,459
20120921,454
20120924,453
20120925,448
20120926,440
20120927,437
20120928,433
20121001,432
20121002,433
20121003,437
20121004,437
20121005,440
20121009,436
20121010,430
20121011,423
20121012,424
20121015,422
20121016,420
20121017,429
20121018,430
20121019,431
20121022,421
20121023,425
20121024,424
20121025,422
20121026,428
20121029,426
20121030,428
20121031,429
20121101,424
20121102,435
20121105,435
20121106,437
20121107,405
20121108,397
20121109,392
20121112,391
20121113,392
20121114,382
20121115,384
20121116,385
20121119,383
20121120,390
20121121,391
20121122,395
20121126,406
20121127,403
20121128,405
20121129,406
20121130,407
20121203,409
20121204,406
20121205,407
20121206,410
20121207,413
20121210,416
20121211,417
20121212,423
20121213,425
20121214,426
20121217,410
20121218,403
20121219,399
20121220,400
20121221,396
20121225,389
20121226,392
20121227,393
20121228,397
20130104,419
20130107,419
20130108,415
20130109,395
20130110,403
20130111,414
20130115,372
20130116,362
20130117,363
20130118,374
20130121,375
20130122,371
20130123,367
20130124,354
20130125,359
20130128,355
20130129,334
20130130,337
20130131,339
20130201,341
20130204,348
20130205,343
20130206,351
20130207,351
20130208,348
20130212,353
20130213,333
20130214,335
20130215,335
20130218,314
20130219,314
20130220,317
20130221,315
20130222,307
20130225,311
20130226,304
20130227,302
20130228,307
20130301,308
20130304,310
20130305,308
20130306,312
20130307,316
20130308,316
20130311,317
20130312,319
20130313,317
20130314,318
20130315,320
20130318,310
20130319,308
20130321,310
20130322,304
20130325,304
20130326,304
20130327,308
20130328,307
20130329,307
20130401,309
20130402,301
20130403,301
20130404,295
20130405,308
20130408,310
20130409,313
20130410,313
20130411,320
20130412,320
20130415,311
20130416,302
20130417,310
20130418,303
20130419,303
20130422,310
20130423,310
20130424,315
20130425,318
20130426,280
20130430,277
20130501,278
20130502,277
20130507,287
20130508,287
20130509,291
20130510,298
20130513,299
20130514,296
20130515,299
20130516,889
20130517,884
20130520,892
20130521,892
20130522,893
20130523,890
20130524,873
20130527,861
20130528,944
20130529,949
20130530,944
20130531,956
20130603,941
20130604,933
20130605,950
20130606,928
20130607,888
20130610,886
20130611,897
20130612,866
20130613,311
20130614,303
20130617,303
20130618,305
20130619,311
20130620,311
20130621,304
20130624,307
20130625,299
20130626,302
20130627,302
20130628,304
20130701,314
20130702,313
20130703,316
20130704,314
20130705,316
20130708,319
20130709,312
20130710,314
20130711,313
20130712,320
20130716,324
20130717,323
20130718,322
20130719,320
20130722,313
20130723,320
20130724,322
20130725,323
20130726,313
20130729,308
20130730,330
20130731,340
20130801,340
20130802,347
20130805,346
20130806,342
20130807,337
20130808,331
20130809,332
20130812,329
20130813,333
20130814,341
20130815,340
20130816,333
20130819,334
20130820,333
20130821,333
20130822,330
20130823,336
20130826,339
20130827,329
20130828,321
20130829,327
20130830,332
20130902,334
20130903,339
20130904,340
20130905,345
20130906,348
20130909,347
20130910,351
20130911,358
20130912,357
20130913,357
20130917,360
20130918,361
20130919,358
20130920,363
20130924,359
20130925,361
20130926,358
20130927,368
20130930,363
20131001,369
20131002,370
20131003,370
20131004,370
20131007,371
20131008,369
20131009,367
20131010,367
20131011,376
20131015,379
20131016,379
20131017,381
20131018,380
20131021,382
20131022,384
20131023,383
20131024,372
20131025,373
20131028,362
20131029,362
20131030,368
20131031,369
20131101,361
20131105,363
20131106,360
20131107,361
20131108,355
20131111,358
20131112,358
20131113,361
20131114,360
20131115,362
20131118,367
20131119,366
20131120,366
20131121,363
20131122,368
20131125,367
20131126,368
20131127,371
20131128,375
20131129,378
20131202,378
20131203,303
20131204,301
20131205,300
20131206,299
20131209,305
20131210,307
20131211,305
20131212,301
20131213,301
20131216,298
20131217,302
20131218,303
20131219,320
20131220,316
20131224,320
20131225,304
20131226,304
20131227,305
20131230,306
20140106,299
20140107,297
20140108,299
20140109,301
20140110,298
20140114,295
20140115,303
20140116,305
20140117,303
20140120,299
20140121,302
20140122,301
20140123,305
20140124,298
20140127,291
20140128,290
20140129,294
20140130,291
20140131,296
20140203,293
20140204,285
20140205,286
20140206,283
20140207,289
20140210,294
20140212,299
20140213,301
20140214,306
20140217,297
20140218,299
20140219,300
20140220,299
20140221,300
20140224,301
20140225,302
20140226,306
20140227,302
20140228,317
20140303,313
20140304,311
20140305,316
20140306,319
20140307,324
20140310,325
20140311,323
20140312,322
20140313,321
20140314,315
20140317,312
20140318,316
20140319,317
20140320,318
20140324,321
20140325,338
20140326,340
20140327,339
20140328,338
20140331,374
20140401,379
20140402,386
20140403,388
20140404,389
20140407,381
20140408,379
20140409,380
20140410,384
20140411,376
20140414,371
20140415,371
20140416,374
20140417,375
20140418,380
20140421,382
20140422,384
20140423,386
20140424,386
20140425,389
20140428,379
20140430,381
20140501,378
20140502,377
20140507,376
20140508,379
20140509,375
20140512,374
20140513,380
20140514,380
20140515,375
20140516,371
20140519,373
20140520,356
20140521,355
20140522,356
20140523,359
20140526,361
20140527,459
20140528,461
20140529,462
20140530,448
20140602,439
20140603,442
20140604,447
20140605,449
20140606,448
20140609,451
20140610,455
20140611,459
20140612,457
20140613,455
20140616,457
20140617,459
20140618,463
20140619,462
20140620,462
20140623,557
20140624,555
20140625,556
20140626,555
20140627,553
20140630,533
20140701,553
20140702,559
20140703,565
20140704,571
20140707,570
20140708,565
20140709,561
20140710,563
20140711,559
20140714,557
20140715,560
20140716,560
20140717,569
20140718,556
20140722,599
20140723,621
20140724,610
20140725,608
20140728,707
20140729,705
20140730,605
20140731,618
20140801,611
20140804,608
20140805,613
20140806,605
20140807,603
20140808,595
20140811,595
20140812,596
20140813,596
20140814,603
20140815,606
20140818,613
20140819,615
20140820,621
20140821,630
20140822,631
20140825,634
20140826,633
20140827,632
20140828,642
20140829,642
20140901,647
20140902,652
20140903,651
20140904,650
20140905,656
20140908,654
20140909,662
20140910,659
20140911,660
20140912,663
20140916,652
20140917,658
20140918,670
20140919,678
20140922,674
20140924,659
20140925,670
20140926,655
20140929,666
20140930,668
20141001,667
20141002,654
20141003,648
20141006,660
20141007,653
20141008,639
20141009,645
20141010,632
20141014,583
20141015,593
20141016,583
20141017,591
20141020,601
20141021,606
20141022,623
20141023,624
20141024,632
20141027,635
20141028,638
20141029,648
20141030,654
20141031,647
20141104,699
20141105,698
20141106,705
20141107,597
20141110,588
20141111,477
20141112,481
20141113,460
20141114,465
20141117,470
20141118,467
20141119,470
20141120,476
20141121,482
20141125,487
20141126,488
20141127,494
20141128,498
20141201,503
20141202,497
20141203,500
20141204,508
20141205,512
20141208,521
20141209,532
20141210,525
20141211,511
20141212,527
20141215,534
20141216,562
20141217,559
20141218,576
20141219,589
20141222,592
20141224,602
20141225,611
20141226,611
20141229,612
20141230,613
20150105,606
20150106,591
20150107,574
20150108,584
20150109,602
20150113,586
20150114,580
20150115,577
20150116,500
20150119,526
20150120,531
20150121,535
20150122,541
20150123,523
20150126,521
20150127,525
20150128,563
20150129,559
20150130,562
20150202,553
20150203,552
20150204,560
20150205,562
20150206,565
20150209,566
20150210,557
20150212,581
20150213,582
20150216,570
20150217,573
20150218,579
20150219,574
20150220,576
20150223,579
20150224,576
20150225,585
20150226,617
20150227,621
20150302,630
20150303,642
20150304,635
20150305,635
20150306,636
20150309,611
20150310,611
20150311,599
20150312,601
20150313,597
20150316,599
20150317,604
20150318,603
20150319,603
20150320,609
20150323,610
20150324,607
20150325,603
20150326,580
20150327,571
20150330,583
20150331,589
20150401,586
20150402,577
20150403,579
20150406,577
20150407,582
20150408,584
20150409,572
20150410,569
20150413,574
20150414,533
20150415,526
20150416,530
20150417,537
20150420,538
20150421,543
20150422,549
20150423,560
20150424,554
20150427,542
20150428,544
20150430,540
20150501,569
20150507,567
20150508,572
20150511,577
20150512,493
20150513,484
20150514,484
20150515,481
20150518,483
20150519,490
20150520,493
20150521,495
20150522,496
20150525,499
20150526,506
20150527,507
20150528,525
20150529,528
20150601,532
20150602,532
20150603,524
20150604,522
20150605,516
20150608,519
20150609,506
20150610,505
20150611,486
20150612,489
20150615,486
20150616,485
20150617,483
20150618,485
20150619,488
20150622,486
20150623,494
20150624,493
20150625,492
20150626,491
20150629,457
20150630,460
20150701,462
20150702,466
20150703,466
20150706,465
20150707,457
20150708,463
20150709,447
20150710,446
20150713,454
20150714,462
20150715,464
20150716,464
20150717,465
20150721,460
20150722,459
20150723,450
20150724,453
20150727,443
20150728,436
20150729,459
20150730,462
20150731,486
20150803,484
20150804,478
20150805,468
20150806,471
20150807,466
20150810,464
20150811,474
20150812,467
20150813,464
20150814,462
20150817,459
20150818,459
20150819,454
20150820,445
20150821,431
20150824,412
20150825,393
20150826,399
20150827,414
20150828,433
20150831,440
20150901,438
20150902,421
20150903,429
20150904,431
20150907,421
20150908,421
20150909,439
20150910,439
20150911,440
20150914,440
20150915,442
20150916,443
20150917,448
20150918,438
20150924,415
20150925,413
20150928,418
20150929,407
20150930,410
20151001,422
20151002,421
20151005,425
20151006,423
20151007,424
20151008,431
20151009,433
20151013,433
20151014,426
20151015,433
20151016,439
20151019,439
20151020,440
20151021,440
20151022,439
20151023,453
20151026,460
20151027,454
20151028,449
20151029,454
20151030,444
20151102,412
20151104,420
20151105,428
20151106,424
20151109,432
20151110,428
20151111,421
20151112,418
20151113,414
20151116,408
20151117,411
20151118,417
20151119,422
20151120,425
20151124,405
20151125,405
20151126,408
20151127,411
20151130,410
20151201,414
20151202,417
20151203,416
20151204,414
20151207,421
20151208,420
20151209,434
20151210,426
20151211,428
20151214,427
20151215,413
20151216,420
20151217,426
20151218,423
20151221,394
20151222,398
20151224,402
20151225,400
20151228,402
20151229,401
20151230,404
20160104,395
20160105,385
20160106,381
20160107,370
20160108,357
20160112,351
20160113,353
20160114,343
20160115,347
20160118,331
20160119,334
20160120,335
20160121,334
20160122,339
20160125,347
20160126,344
20160127,346
20160128,345
20160129,346
20160201,359
20160202,360
20160203,349
20160204,342
20160205,344
20160208,336
20160209,324
20160210,322
20160212,311
20160215,318
20160216,322
20160217,328
20160218,335
20160219,332
20160222,332
20160223,335
20160224,328
20160225,331
20160226,337
20160229,340
20160301,337
20160302,349
20160303,350
20160304,353
20160307,356
20160308,355
20160309,347
20160310,352
20160311,354
20160314,362
20160315,362
20160316,358
20160317,358
20160318,357
20160322,356
20160323,356
20160324,353
20160325,354
20160328,354
20160329,354
20160330,356
20160331,360
20160401,358
20160404,355
20160405,351
20160406,347
20160407,345
20160408,331
20160411,331
20160412,332
20160413,333
20160414,334
20160415,333
20160418,325
20160419,328
20160420,327
20160421,314
20160422,313
20160425,318
20160426,315
20160427,319
20160428,317
20160502,295
20160506,293
20160509,293
20160510,295
20160511,300
20160512,297
20160513,294
20160516,293
20160517,297
20160518,296
20160519,303
20160520,301
20160523,308
20160524,310
20160525,317
20160526,319
20160527,311
20160530,356
20160531,357
20160601,356
20160602,353
20160603,347
20160606,334
20160607,338
20160608,340
20160609,340
20160610,341
20160613,334
20160614,330
20160615,329
20160616,328
20160617,325
20160620,325
20160621,327
20160622,330
20160623,332
20160624,324
20160627,314
20160628,296
20160629,312
20160630,320
20160701,326
20160704,323
20160705,323
20160706,314
20160707,312
20160708,316
20160711,322
20160712,333
20160713,343
20160714,342
20160715,349
20160719,356
20160720,355
20160721,363
20160722,357
20160725,361
20160726,357
20160727,365
20160728,366
20160729,364
20160801,356
20160802,357
20160803,349
20160804,348
20160805,352
20160808,360
20160809,363
20160810,363
20160812,364
20160815,368
20160816,380
20160817,376
20160818,372
20160819,376
20160822,378
20160823,376
20160824,380
20160825,337
20160826,338
20160829,469
20160830,479
20160831,484
20160901,490
20160902,501
20160905,503
20160906,511
20160907,503
20160908,505
20160909,514
20160912,510
20160913,509
20160914,512
20160915,513
20160916,809
20160920,814
20160921,812
20160923,817
20160926,809
20160927,797
20160928,810
20160929,816
20160930,827
20161003,894
20161004,898
20161005,933
20161006,945
20161007,952
20161011,970
20161012,953
20161013,1153
20161014,1138
20161017,1149
20161018,1140
20161019,1154
20161020,1136
20161021,1146
20161024,1139
20161025,1177
20161026,1173
20161027,1180
20161028,1187
20161031,1179
20161101,1202
20161102,1188
20161104,1165
20161107,1170
20161108,1204
20161109,1179
20161110,1203
20161111,1203
20161114,1221
20161115,1218
20161116,1246
20161117,1247
20161118,1274
20161121,1286
20161122,1147
20161124,1195
20161125,1205
20161128,1191
20161129,1202
20161130,1204
20161201,1126
20161202,1082
20161205,1108
20161206,1143
20161207,1160
20161208,1174
20161209,1197
20161212,1207
20161213,1199
20161214,1208
20161215,1218
20161216,1234
20161219,1146
20161220,1096
20161221,1106
20161222,1102
20161226,1103
20161227,1141
20161228,1150
20161229,1133
20161230,1137
20170104,1146
20170105,1137
20170106,1127
20170110,1141
20170111,1246
20170112,1246
20170113,1246
20170116,1219
20170117,1239
20170118,1217